Tracking 29090 objects as of 15-Jul-2024
HD Live streaming from Space Station
objects crossing your sky now

STARLINK-6245

Track STARLINK-6245 now!
10-day predictions
STARLINK-6245 is classified as:


NORAD ID: 57079
Int'l Code: 2023-088AH
Perigee: 565.7 km
Apogee: 566.7 km
Inclination: 43.0 °
Period: 95.8 minutes
Semi major axis: 6937 km
RCS: Unknown
Launch date: June 22, 2023
Source: United States (US)
Launch site: AIR FORCE WESTERN TEST RANGE (AFWTR)
Your satellite tracking list
Your tracking list is empty




NASA's NSSDC Master Catalog

Two Line Element Set (TLE):
1 57079U 23088AH  24197.50744366 -.00001681  00000-0 -10943-3 0  9995
2 57079  43.0002 126.7474 0000716 268.0830  91.9931 15.02532329 59021
Source of the keplerian elements: AFSPC